Weather History for KOWD - December, 2013

Change the Weather History Date:

Thursday, December 5, 2013

  Actual Average Record
Temperature  
Mean Temperature 42 °F -  
Max Temperature 55 °F 42 °F 68 °F (2001)
Min Temperature 30 °F 24 °F 10 °F (2000)
Degree Days  
Heating Degree Days 22    
Moisture  
Dew Point 45 °F    
Average Humidity 92    
Maximum Humidity 100    
Minimum Humidity 71    
Precipitation  
Precipitation 0.00 in - - ()
Sea Level Pressure  
Sea Level Pressure 30.05 in    
Wind  
Wind Speed 2 mph (South)    
Max Wind Speed 12 mph    
Max Gust Speed 21 mph    
Visibility 6 miles    
Events Fog    
Averages and records for this station are not official NWS values.
T = Trace of Precipitation, MM = Missing Value Source: NWS Daily Summary

Daily Weather History Graph

Daily Weather History Graph

Search for Another Location

Airport or City:

Trip Planner

Search our weather history database for the weather conditions in past years. The results will help you decide how hot, cold, wet, or windy it might be!

Date:

Astronomy

Dec. 05, 2013 Rise Set
Actual Time 6:58 AM EST 4:12 PM EST
Civil Twilight 6:26 AM EST 4:44 PM EST
Nautical Twilight 5:51 AM EST 5:19 PM EST
Astronomical Twilight 5:17 AM EST 5:53 PM EST
Moon 9:14 AM EST 7:31 PM EST
Length of Visible Light 10h 17m
Length of Day
9h 14m
Waxing Crescent, 10% of the Moon is Illuminated
Dec 5
Waxing Crescent
Dec 9
First Quarter
Dec 17
Full
Dec 25
Last Quarter
Jan 1
New

Hourly Weather History & Observations

Time (EST) Temp. Dew Point Humidity Pressure Visibility Wind Dir Wind Speed Gust Speed Precip Events Conditions
12:53 AM 30.9 °F 28.0 °F 89% 30.19 in 9.0 mi Calm Calm - N/A   Overcast
1:53 AM 32.0 °F 30.0 °F 92% 30.22 in 9.0 mi Calm Calm - N/A   Overcast
2:53 AM 32.0 °F 28.9 °F 88% 30.20 in 9.0 mi Calm Calm - N/A   Clear
3:53 AM 32.0 °F 30.0 °F 92% 30.19 in 9.0 mi Calm Calm - N/A   Overcast
4:53 AM 34.0 °F 30.9 °F 89% 30.20 in 9.0 mi Calm Calm - N/A   Overcast
5:53 AM 36.0 °F 33.1 °F 89% 30.20 in 9.0 mi Calm Calm - N/A   Overcast
6:53 AM 37.0 °F 33.1 °F 86% 30.18 in 9.0 mi Calm Calm - N/A   Overcast
7:13 AM 37.0 °F 34.0 °F 89% 30.18 in 10.0 mi Calm Calm - N/A   Overcast
7:27 AM 37.9 °F 34.0 °F 86% 30.18 in 10.0 mi Calm Calm - N/A   Overcast
7:53 AM 39.9 °F 34.0 °F 79% 30.18 in 10.0 mi Calm Calm - N/A   Overcast
8:41 AM 43.0 °F 35.1 °F 74% 30.17 in 10.0 mi Calm Calm - N/A   Overcast
8:53 AM 43.0 °F 35.1 °F 74% 30.17 in 10.0 mi Calm Calm - N/A   Overcast
9:53 AM 46.9 °F 37.9 °F 71% 30.16 in 10.0 mi Calm Calm - N/A   Overcast
10:53 AM 46.9 °F 41.0 °F 80% 30.14 in 7.0 mi Variable 3.5 mph - N/A   Overcast
11:53 AM 46.9 °F 43.0 °F 86% 30.11 in 6.0 mi Calm Calm - 0.00 in   Overcast
12:45 PM 48.9 °F 44.1 °F 83% 30.08 in 8.0 mi South 5.8 mph - N/A   Overcast
12:53 PM 48.9 °F 45.0 °F 86% 30.07 in 9.0 mi SSE 4.6 mph - N/A   Overcast
1:53 PM 51.1 °F 46.9 °F 86% 30.04 in 8.0 mi SSE 3.5 mph - N/A   Overcast
2:53 PM 51.1 °F 48.0 °F 89% 30.04 in 4.0 mi Calm Calm - N/A   Overcast
3:13 PM 51.1 °F 48.9 °F 92% 30.04 in 2.0 mi Calm Calm - N/A   Overcast
3:53 PM 51.1 °F 50.0 °F 96% 30.03 in 2.0 mi SSE 4.6 mph - N/A   Overcast
4:01 PM 51.1 °F 48.9 °F 92% 30.02 in 1.5 mi SE 4.6 mph - N/A   Overcast
4:08 PM 50.0 °F 50.0 °F 100% 30.02 in 1.5 mi SSE 3.5 mph - N/A   Overcast
4:53 PM 51.1 °F 50.0 °F 96% 30.03 in 1.5 mi Calm Calm - N/A   Overcast
5:00 PM 51.1 °F 50.0 °F 96% 30.03 in 3.0 mi Calm Calm - N/A   Overcast
5:14 PM 51.1 °F 50.0 °F 96% 30.02 in 2.5 mi Calm Calm - N/A   Overcast
5:31 PM 50.0 °F 50.0 °F 100% 30.01 in 1.5 mi Calm Calm - N/A   Overcast
5:48 PM 50.0 °F 50.0 °F 100% 30.02 in 1.5 mi South 3.5 mph - N/A   Overcast
5:53 PM 50.0 °F 50.0 °F 100% 30.02 in 1.5 mi South 3.5 mph - N/A   Overcast
5:57 PM 50.0 °F 50.0 °F 100% 30.02 in 0.5 mi Calm Calm - N/A Fog Fog
6:05 PM 50.0 °F 50.0 °F 100% 30.02 in 0.2 mi Calm Calm - N/A Fog Fog
6:53 PM 51.1 °F 50.0 °F 96% 30.02 in 0.8 mi Calm Calm - N/A Fog Fog
7:08 PM 51.1 °F 50.0 °F 96% 30.01 in 0.8 mi SSE 3.5 mph - N/A Fog Fog
7:27 PM 51.1 °F 51.1 °F 100% 30.01 in 0.8 mi SSE 5.8 mph - N/A Fog Fog
7:53 PM 51.1 °F 51.1 °F 100% 29.99 in 0.5 mi SSE 4.6 mph - N/A Fog Fog
8:09 PM 51.1 °F 51.1 °F 100% 29.99 in 1.0 mi South 6.9 mph - N/A Fog Fog
8:21 PM 51.1 °F 51.1 °F 100% 29.98 in 2.5 mi South 5.8 mph - N/A Fog Fog
8:33 PM 51.1 °F 51.1 °F 100% 29.98 in 3.0 mi South 4.6 mph - N/A Fog Fog
8:53 PM 51.1 °F 51.1 °F 100% 29.97 in 4.0 mi SSE 5.8 mph - N/A Fog Fog
9:19 PM 52.0 °F 51.1 °F 97% 29.96 in 6.0 mi SSE 6.9 mph - N/A Fog Fog
9:34 PM 53.1 °F 52.0 °F 96% 29.94 in 7.0 mi SSE 8.1 mph - N/A Fog Fog
9:48 PM 53.6 °F 51.8 °F 94% 29.92 in 8.0 mi South 9.2 mph - N/A Fog Fog
9:53 PM 53.1 °F 52.0 °F 96% 29.91 in 8.0 mi South 9.2 mph - N/A Fog Fog
10:10 PM 55.0 °F 53.1 °F 93% 29.91 in 10.0 mi South 10.4 mph 17.3 mph N/A Fog Fog
10:23 PM 55.0 °F 54.0 °F 96% 29.91 in 10.0 mi South 11.5 mph 20.7 mph N/A Fog Fog
10:40 PM 55.9 °F 54.0 °F 93% 29.92 in 10.0 mi SSW 8.1 mph 18.4 mph N/A Fog Fog
10:53 PM 55.9 °F 54.0 °F 93% 29.92 in 9.0 mi SSW 9.2 mph 20.7 mph N/A Fog Fog
11:53 PM 55.9 °F 54.0 °F 93% 29.93 in 8.0 mi SSW 8.1 mph 17.3 mph N/A Fog Fog